This is the latest recevied weather packets stored in our database for station/object KS5S. If no packets are shown the sender has not sent any weather packets the latest 10 day(s).
| Time | Temp. | Humidity | Pressure | Rain* | Wind** | Luminosity | Snow |
|---|---|---|---|---|---|---|---|
| 1777930901 | 27.22° C | 61% | 1005.5 hPa | 0 mm | - | 318 W/m² | - |
| 1777930597 | 27.78° C | 61% | 1005.6 hPa | 0 mm | - | 629 W/m² | - |
| 1777930294 | 27.22° C | 62% | 1005.8 hPa | 0 mm | - | 603 W/m² | - |
| 1777929990 | 27.22° C | 62% | 1005.7 hPa | 0 mm | - | 451 W/m² | - |
| 1777929687 | 27.78° C | 61% | 1005.9 hPa | 0 mm | - | 307 W/m² | - |
| 1777929385 | 27.78° C | 60% | 1005.8 hPa | 0 mm | - | 599 W/m² | - |
| 1777929081 | 27.78° C | 62% | 1005.8 hPa | 0 mm | - | 677 W/m² | - |
| 1777928779 | 27.78° C | 61% | 1005.9 hPa | 0 mm | - | 582 W/m² | - |
| 1777928475 | 27.78° C | 60% | 1006.3 hPa | 0 mm | - | 669 W/m² | - |
| 1777928173 | 27.78° C | 61% | 1006.2 hPa | 0 mm | - | 775 W/m² | - |
| 1777927870 | 27.78° C | 60% | 1006.2 hPa | 0 mm | - | 759 W/m² | - |
| 1777927568 | 27.78° C | 60% | 1006.2 hPa | 0 mm | - | 860 W/m² | - |
| 1777927267 | 27.78° C | 59% | 1006.4 hPa | 0 mm | - | 784 W/m² | - |
| 1777926965 | 27.78° C | 60% | 1006.6 hPa | 0 mm | - | 837 W/m² | - |
| 1777926662 | 27.78° C | 60% | 1006.5 hPa | 0 mm | - | 857 W/m² | - |
| 1777926357 | 28.33° C | 61% | 1006.8 hPa | 0 mm | - | 871 W/m² | - |
| 1777926054 | 27.78° C | 60% | 1006.6 hPa | 0 mm | - | 876 W/m² | - |
| 1777925751 | 28.33° C | 62% | 1007 hPa | 0 mm | - | 835 W/m² | - |
| 1777925449 | 27.78° C | 61% | 1007.1 hPa | 0 mm | - | 813 W/m² | - |
| 1777925145 | 27.78° C | 60% | 1007.2 hPa | 0 mm | - | 783 W/m² | - |
| 1777924842 | 27.78° C | 60% | 1007.2 hPa | 0 mm | - | 836 W/m² | - |
| 1777924538 | 27.22° C | 62% | 1007.5 hPa | 0 mm | - | 941 W/m² | - |
| 1777924235 | 27.78° C | 61% | 1007.5 hPa | 0 mm | - | 872 W/m² | - |
| 1777923932 | 27.78° C | 60% | 1007.4 hPa | 0 mm | - | 943 W/m² | - |
| 1777923627 | 27.78° C | 62% | 1007.9 hPa | 0 mm | - | 871 W/m² | - |
* Rain latest hour (hover to see other rain measurements)
** Current wind speed in m/s (hover to see current wind gust speed)